Weather History for KSBS - December, 2013

Change the Weather History Date:

Thursday, December 5, 2013

  Actual Average Record
Temperature  
Mean Temperature -8 °F -  
Max Temperature 6 °F 32 °F 63 °F (1939)
Min Temperature -21 °F 7 °F -23 °F (1909)
Degree Days  
Heating Degree Days 72    
Moisture  
Dew Point -17 °F    
Average Humidity 69    
Maximum Humidity 81    
Minimum Humidity 48    
Precipitation  
Precipitation 0.00 in - - ()
Sea Level Pressure  
Sea Level Pressure 29.88 in    
Wind  
Wind Speed 0 mph (East)    
Max Wind Speed 7 mph    
Max Gust Speed -    
Visibility 7 miles    
Events      
Averages and records for this station are not official NWS values.
T = Trace of Precipitation, MM = Missing Value Source: NWS Daily Summary

Daily Weather History Graph

Daily Weather History Graph

Search for Another Location

Airport or City:

Trip Planner

Search our weather history database for the weather conditions in past years. The results will help you decide how hot, cold, wet, or windy it might be!

Date:

Astronomy

Dec. 05, 2013 Rise Set
Actual Time 7:15 AM MST 4:40 PM MST
Civil Twilight 6:45 AM MST 5:11 PM MST
Nautical Twilight 6:11 AM MST 5:45 PM MST
Astronomical Twilight 5:38 AM MST 6:18 PM MST
Moon 9:37 AM MST (12/5) 8:05 PM MST (12/5)
Length of Visible Light 10h 25m
Length of Day
9h 24m
Waxing Crescent, 11% of the Moon is Illuminated
Dec 5
Waxing Crescent
Dec 9
First Quarter
Dec 17
Full
Dec 25
Last Quarter
Jan 1
New

Hourly Weather History & Observations

Time (MST) Temp. Windchill Dew Point Humidity Pressure Visibility Wind Dir Wind Speed Gust Speed Precip Events Conditions
12:15 AM -11.6 °F - -16.8 °F 78% 29.93 in 10.0 mi Calm Calm - N/A   Clear
12:35 AM -13.9 °F - -19.7 °F 75% 29.93 in 10.0 mi Calm Calm - N/A   Clear
12:55 AM -13.2 °F - -18.8 °F 76% 29.92 in 10.0 mi Calm Calm - N/A   Clear
1:15 AM -13.9 °F - -19.3 °F 77% 29.92 in 10.0 mi Calm Calm - N/A   Clear
1:35 AM -14.1 °F - -19.7 °F 76% 29.92 in 10.0 mi Calm Calm - N/A   Clear
1:55 AM -13.7 °F - -18.6 °F 79% 29.92 in 10.0 mi Calm Calm - N/A   Clear
2:15 AM -15.5 °F - -21.1 °F 76% 29.91 in 3.0 mi Calm Calm - N/A   Unknown
2:35 AM -16.4 °F -26.6 °F -23.3 °F 71% 29.92 in 2.0 mi ESE 3.5 mph - N/A   Clear
2:55 AM -15.9 °F -32.1 °F -22.0 °F 74% 29.92 in 2.5 mi East 6.9 mph - N/A   Clear
3:15 AM -14.3 °F -24.1 °F -20.4 °F 74% 29.92 in 4.0 mi SSE 3.5 mph - N/A   Clear
3:35 AM -17.7 °F - -24.2 °F 72% 29.92 in 1.8 mi Calm Calm - N/A   Unknown
3:55 AM -17.1 °F - -23.8 °F 72% 29.91 in 1.5 mi Calm Calm - N/A   Unknown
4:15 AM -16.2 °F - -22.7 °F 72% 29.90 in 4.0 mi Calm Calm - N/A   Clear
4:35 AM -17.9 °F - -24.0 °F 74% 29.90 in 10.0 mi Calm Calm - N/A   Clear
4:55 AM -18.4 °F - -24.7 °F 73% 29.90 in 10.0 mi Calm Calm - N/A   Clear
5:15 AM -20.2 °F - -27.4 °F 69% 29.89 in 10.0 mi Calm Calm - N/A   Clear
5:35 AM -20.2 °F - -26.9 °F 71% 29.89 in 2.0 mi Calm Calm - N/A   Unknown
5:55 AM -19.8 °F - -27.2 °F 69% 29.89 in 1.8 mi Calm Calm - N/A   Unknown
6:15 AM -20.2 °F -30.9 °F -27.4 °F 69% 29.89 in 2.5 mi East 3.5 mph - N/A   Clear
6:35 AM -21.1 °F - -28.1 °F 70% 29.88 in 1.5 mi Calm Calm - N/A   Unknown
6:55 AM -19.8 °F - -26.7 °F 71% 29.88 in 1.0 mi Calm Calm - N/A   Unknown
7:15 AM -20.2 °F - -27.4 °F 69% 29.87 in 1.2 mi Calm Calm - N/A   Unknown
7:35 AM -20.2 °F - -27.0 °F 71% 29.88 in 0.5 mi Calm Calm - N/A   Unknown
7:55 AM -20.9 °F - -27.8 °F 71% 29.88 in 1.5 mi Calm Calm - N/A   Unknown
8:15 AM -19.5 °F - -26.3 °F 71% 29.88 in 0.8 mi Calm Calm - N/A   Unknown
8:35 AM -19.1 °F - -26.3 °F 70% 29.88 in 1.5 mi Calm Calm - N/A   Unknown
8:55 AM -17.5 °F - -25.1 °F 68% 29.89 in 1.8 mi Calm Calm - N/A   Unknown
9:15 AM -14.6 °F - -21.5 °F 71% 29.90 in 3.0 mi Calm Calm - N/A   Clear
9:35 AM -13.4 °F - -19.7 °F 73% 29.90 in 1.8 mi Calm Calm - N/A   Unknown
9:55 AM -10.8 °F - -18.2 °F 70% 29.89 in 7.0 mi Calm Calm - N/A   Clear
10:15 AM -9.4 °F - -16.4 °F 71% 29.89 in 10.0 mi Calm Calm - N/A   Clear
10:35 AM -9.8 °F - -17.7 °F 68% 29.89 in 3.0 mi Calm Calm - N/A   Clear
10:55 AM -7.6 °F - -15.9 °F 67% 29.89 in 7.0 mi Calm Calm - N/A   Clear
11:15 AM -7.2 °F - -16.4 °F 64% 29.87 in 10.0 mi Calm Calm - N/A   Clear
11:35 AM -5.1 °F - -14.8 °F 63% 29.86 in 10.0 mi Calm Calm - N/A   Clear
11:55 AM -4.0 °F - -13.9 °F 63% 29.86 in 10.0 mi Calm Calm - N/A   Clear
12:15 PM -2.4 °F - -13.7 °F 59% 29.85 in 10.0 mi Calm Calm - N/A   Clear
12:35 PM -1.7 °F - -13.4 °F 58% 29.84 in 10.0 mi Calm Calm - N/A   Clear
12:55 PM 0.7 °F - -12.5 °F 54% 29.83 in 10.0 mi Calm Calm - N/A   Clear
1:15 PM 0.5 °F - -11.7 °F 56% 29.83 in 10.0 mi Calm Calm - N/A   Clear
1:35 PM 1.8 °F - -11.6 °F 54% 29.82 in 10.0 mi Calm Calm - N/A   Clear
1:55 PM 2.3 °F - -11.4 °F 53% 29.82 in 10.0 mi Calm Calm - N/A   Clear
2:15 PM 4.8 °F - -11.2 °F 48% 29.82 in 10.0 mi Calm Calm - N/A   Clear
2:35 PM 4.6 °F - -10.3 °F 50% 29.82 in 10.0 mi Calm Calm - N/A   Clear
2:55 PM 5.5 °F - -9.0 °F 51% 29.83 in 10.0 mi Calm Calm - N/A   Clear
3:15 PM 6.8 °F - -8.9 °F 49% 29.83 in 10.0 mi Calm Calm - N/A   Clear
3:35 PM 4.8 °F - -8.9 °F 53% 29.84 in 10.0 mi Calm Calm - N/A   Clear
3:55 PM 4.8 °F -2.3 °F -8.5 °F 54% 29.84 in 10.0 mi NNW 3.5 mph - N/A   Clear
4:15 PM 3.2 °F - -8.7 °F 58% 29.84 in 10.0 mi Calm Calm - N/A   Scattered Clouds
4:35 PM 3.4 °F - -8.5 °F 58% 29.84 in 10.0 mi Calm Calm - N/A   Overcast
4:55 PM 2.3 °F - -8.1 °F 62% 29.85 in 10.0 mi Calm Calm - N/A   Overcast
5:15 PM 1.8 °F - -8.3 °F 63% 29.85 in 10.0 mi Calm Calm - N/A   Overcast
5:35 PM 0.1 °F - -8.7 °F 66% 29.86 in 10.0 mi Calm Calm - N/A   Overcast
5:55 PM -0.8 °F - -8.9 °F 69% 29.86 in 10.0 mi Calm Calm - N/A   Overcast
6:15 PM -2.0 °F - -8.9 °F 73% 29.86 in 10.0 mi Calm Calm - N/A   Overcast
6:35 PM -2.6 °F - -9.4 °F 73% 29.86 in 10.0 mi Calm Calm - N/A   Overcast
6:55 PM -4.7 °F - -10.8 °F 75% 29.86 in 10.0 mi Calm Calm - N/A   Overcast
7:15 PM -4.5 °F - -9.9 °F 78% 29.86 in 10.0 mi Calm Calm - N/A   Overcast
7:35 PM -5.1 °F - -10.3 °F 78% 29.87 in 10.0 mi Calm Calm - N/A   Overcast
7:55 PM -5.6 °F - -10.8 °F 78% 29.88 in 10.0 mi Calm Calm - N/A   Overcast
8:15 PM -6.2 °F - -11.6 °F 77% 29.88 in 7.0 mi Calm Calm - N/A   Overcast
8:35 PM -6.0 °F - -11.4 °F 77% 29.88 in 7.0 mi Calm Calm - N/A   Overcast
8:55 PM -6.0 °F - -11.2 °F 78% 29.88 in 4.0 mi Calm Calm - N/A   Overcast
9:15 PM -6.0 °F - -11.0 °F 79% 29.89 in 4.0 mi Calm Calm - N/A   Overcast
9:35 PM -7.6 °F - -12.8 °F 78% 29.89 in 5.0 mi Calm Calm - N/A   Overcast
9:55 PM -7.6 °F - -12.5 °F 79% 29.89 in 7.0 mi Calm Calm - N/A   Mostly Cloudy
10:15 PM -7.6 °F - -12.3 °F 80% 29.89 in 10.0 mi Calm Calm - N/A   Scattered Clouds
10:35 PM -8.9 °F - -13.7 °F 79% 29.89 in 7.0 mi Calm Calm - N/A   Clear
10:55 PM -10.1 °F - -15.5 °F 77% 29.90 in 10.0 mi Calm Calm - N/A   Mostly Cloudy
11:15 PM -10.3 °F - -14.8 °F 81% 29.90 in 7.0 mi Calm Calm - N/A   Overcast
11:35 PM -9.4 °F - -14.1 °F 80% 29.90 in 5.0 mi Calm Calm - N/A   Mostly Cloudy
11:55 PM -9.9 °F - -14.8 °F 79% 29.90 in 7.0 mi Calm Calm - N/A   Mostly Cloudy